Weather in Kochnevka

Russia / Novosibirsk Oblast     55°28′56″N   76°07′21″E
temp.,
°C
wind,
m/s
gust,
m/s
humid.,
%
clouds,
%
prec.,
mm/h
press.,
hPa
HPBL,
m
3 march, wed
wed301:00−17ssw349788 0.1 101580
04:00−19ssw349879 0.1 101548
07:00−20ssw349977 0.1 101545
10:00−19s469884 0.0 1015130
13:00−14s589582 0.1 1015281
16:00−12s61092100 0.0 1014441
19:00−14s61392100 0.1 1014441
22:00−13ssw61393100 0.2 1013505
4 march, thu
thu401:00−9ssw71492100 0.4 1012585
04:00−7ssw71394100 0.4 1011625
07:00−5ssw71294100 1.1 1010630
10:00−3ssw61296100 0.3 1009659
13:00−1ssw81294100 1.1 1008892
16:00−1ssw91494100 0.3 1006842
19:00−2ssw91592100 0.7 1005877
22:00−2ssw91690100 0.4 1004884
5 march, fri
fri501:00−2ssw91688100 0.5 1003763
04:00−2ssw81491100 0.0 1002694
07:00−7wsw7138992 0.1 1004408
10:00−10sw7149186 0.0 1007374
13:00−8sw7138767 0.0 1009521
16:00−7sw81393100 0.7 10091081
19:00−7wsw71389100 1.1 1011742
22:00−7sw6149196 0.0 1012506
6 march, sat
sat601:00−6sw6139098 0.1 1012502
04:00−3sw71395100 0.8 1010732
07:00−4sw81395100 1.6 1009790
10:00−4sw81493100 1.0 1008880
13:00−3sw91493100 1.4 1006906
16:00−1sw101690100 0.4 10051073
19:000wsw111894100 0.6 10051121
22:00−2w7148599 0.3 1008885
7 march, sun
sun701:00−6sw5129093 0.3 1011290
04:00−7sw4994100 0.0 1011213
07:00−7s3595100 0.0 1010108
10:00−3s71396100 1.1 1007695
13:00−1ssw91494100 1.8 1005917
16:000sw91494100 0.4 10041020
19:00−1sw81490100 0.4 1004899
22:000sw91690100 0.0 10061085